SCOUT A DEB, 2353

Orbit data source: Space-Track

SCOUT A DEB, 2353 is space debris in LEO originally from a launch on Sat, 26 Mar 1966 UTC launched from the Air Force Western Test Range (AFWTR). Debris objects in space refer to the collection of defunct objects orbiting the Earth. Examples of debris include non-operational satellites, rocket bodies, and fragments generated from explosions, collisions, or faulty payload assembly.

Loading next visibility...
Identifier
2353, 1966-024C
Orbit
LEO
Country
Flag of USUS
Related business
Manufacturer
Unknown
Mission
Spacecraft
Bus & Motor
Unknown
Mass
Unknown
Launch date (UTC)
1966-03-26 (60 years ago)
Launch vehicle
Unknown
Launch site
Air Force Western Test Range (AFWTR)
Object type
Payload
Rocket body
Debris
Shape & HBR
Unknown shape, 0.1 m
Radar Cross Section
Small (<0.1 m²)

Expand to show TLE details & history
Last TLE update: 1 day ago

TLE from 1 day ago
0 SCOUT A DEB
1 02353U 66024C   26135.10113593  .00000215  00000-0  18709-3 0  9997
2 02353  89.4005  15.9341 0151371 170.0102 190.4134 13.77519774 10445
Epoch: 2026-05-15T02:25Z
TLE epoch observation values (Epoch: 2026-05-15T02:25:38.144Z)
Latitude
-0°
Longitude
106.68788°
Altitude
1,085.205 km
Speed
7.255 km/s
True Right ascension
01h 03m 44s
True Declination
0° 00' 00"
Sunlit
Object was in daylight at epoch
Visualization orbit readout
Latitude
Unknown
Longitude
Unknown
Altitude
Unknown
Speed
Unknown
Apparent Right ascension
Unknown
Apparent Declination
Unknown
Sunlit
N/A
Visualization observer readout
Local Sidereal Time
19:34:37
Azimuth
Unknown
Elevation
Unknown
Doppler factor
Unknown
Orbital elements
Apogee altitude
1,080.932 km
Perigee altitude
858.482 km
Semi-major axis
7,347.844 km
Eccentricity
0.01514
Inclination
89.4005°
RAAN
15.9341°
Arg. of periapsis
170.0102°
True anomaly
190.10561°
Mean anomaly
190.4134°
Eccentric anomaly
190.25894°
Mean motion
3.44591 °/min
Orbital period
104.47 mins
BSTAR
0.00018709
Loading maneuver chart data...
Computing Atmospheric mass density...
Loading historical data...
Loading historical data...
Loading historical data...
Loading historical data...
Loading historical data...
Loading historical data...
Loading historical data...

Documentation

Showing up to 5 results
|